KI5QWQ Weather Reports


time (UTC)temp
C
wind
direction
speed
KPH
gust
KPH
rain 1hr
cm
rain 24hr
cm
rain mn
cm
humidity
%
barometer
mb
20260507182341 -17 89 4.8 8.0 0.00 0.00 0.00 1020.7
20260507181837 -17 54 4.8 14.5 0.00 0.00 0.00 1020.9
20260507181333 -17 166 1.6 9.7 0.00 0.00 0.00 1021.0
20260507180830 -17 63 3.2 8.0 0.00 0.00 0.00 1021.2
20260507180327 -17 93 0.0 8.0 0.00 0.00 0.00 1021.5
20260507175822 -17 88 3.2 9.7 0.00 0.00 0.00 1021.9
20260507175320 -17 52 1.6 6.4 0.00 0.00 0.00 1021.8
20260507174817 -17 175 0.0 6.4 0.00 0.00 0.00 1021.2
20260507174315 -17 39 1.6 8.0 0.00 0.00 0.00 1021.0
20260507173812 -17 81 0.0 12.9 0.00 0.00 0.00 1021.0
20260507173309 -17 333 1.6 8.0 0.00 0.00 0.00 1021.5
20260507172805 -17 41 1.6 11.3 0.00 0.00 0.00 1021.3
20260507172307 -17 93 0.0 6.4 0.00 0.00 0.00 1021.6
20260507171758 -17 323 4.8 9.7 0.00 0.00 0.00 1022.1
20260507171255 -17 165 0.0 4.8 0.00 0.00 0.00 1021.1
20260507170752 -17 209 3.2 8.0 0.00 0.00 0.00 1021.1
20260507170248 -17 146 0.0 11.3 0.00 0.00 0.00 1020.7
20260507165744 -17 76 1.6 4.8 0.00 0.00 0.00 1021.0
20260507165241 -17 151 3.2 6.4 0.00 0.00 0.00 1020.9
20260507164737 -17 120 0.0 6.4 0.00 0.00 0.00 1021.8
20260507164234 -17 159 1.6 4.8 0.00 0.00 0.00 1021.7
20260507163731 -17 66 3.2 16.1 0.00 0.00 0.00 1022.7
20260507163229 -17 7 4.8 8.0 0.00 0.00 0.00 1022.2
20260507162725 -17 103 0.0 6.4 0.00 0.00 0.00 1023.0
20260507162221 -17 123 0.0 3.2 0.00 0.00 0.00 1023.3
20260507161718 -17 88 1.6 6.4 0.00 0.00 0.00 1023.4
20260507161214 -17 11 0.0 4.8 0.00 0.00 0.00 1023.0
20260507160710 -17 55 4.8 9.7 0.00 0.00 0.00 1022.4
20260507160207 -17 341 1.6 6.4 0.00 0.00 0.00 1022.1
20260507155703 -17 15 3.2 8.0 0.00 0.00 0.00 1022.8
20260507155159 -17 307 0.0 9.7 0.00 0.00 0.00 1022.6
20260507154655 -17 290 4.8 9.7 0.00 0.00 0.00 1022.6
20260507154153 -17 340 4.8 14.5 0.00 0.00 0.00 1022.4
20260507153650 -17 0 1.6 8.0 0.00 0.00 0.00 1022.4
20260507153146 -17 197 4.8 8.0 0.00 0.00 0.00 1022.2
20260507152643 -17 25 1.6 4.8 0.00 0.00 0.00 1023.1
20260507152139 -17 221 0.0 4.8 0.00 0.00 0.00 1022.7
20260507151635 -17 3 0.0 8.0 0.00 0.00 0.00 1023.2
20260507151132 -17 206 3.2 11.3 0.00 0.00 0.00 1021.7
20260507150629 -17 80 3.2 12.9 0.00 0.00 0.00 1022.4
20260507150125 -17 39 1.6 8.0 0.00 0.00 0.00 1023.1
20260507145620 -17 60 3.2 8.0 0.00 0.00 0.00 1022.8
20260507145119 -17 68 1.6 4.8 0.00 0.00 0.00 1022.1
20260507144614 -17 202 1.6 4.8 0.00 0.00 0.00 1022.2
20260507144113 -17 49 0.0 9.7 0.00 0.00 0.00 1021.8
20260507143609 -17 20 0.0 12.9 0.00 0.00 0.00 1021.8
20260507143106 -17 240 0.0 9.7 0.00 0.00 0.00 1022.3
20260507142601 -17 309 0.0 8.0 0.00 0.00 0.00 1022.3
20260507142059 -17 118 0.0 11.3 0.00 0.00 0.00 1021.8
20260507141554 -17 322 4.8 12.9 0.00 0.00 0.00 1021.8
20260507141051 -17 16 3.2 9.7 0.00 0.00 0.00 1022.3
20260507140548 -17 21 3.2 8.0 0.00 0.00 0.00 1022.1
20260507140046 -17 99 0.0 6.4 0.00 0.00 0.00 1022.1
20260507135542 -17 0 0.0 8.0 0.00 0.00 0.00 1022.1
20260507135040 -17 315 3.2 9.7 0.00 0.00 0.00 1021.9
20260507134536 -17 2 0.0 9.7 0.00 0.00 0.00 1021.5
20260507134032 -17 19 0.0 16.1 0.00 0.00 0.00 1021.4
20260507133528 -17 35 3.2 11.3 0.00 0.00 0.00 1021.6
20260507133027 -17 295 1.6 17.7 0.00 0.00 0.00 1021.6
20260507132523 -17 24 3.2 8.0 0.00 0.00 0.00 1021.8
20260507132019 -17 156 1.6 12.9 0.00 0.00 0.00 1021.7
20260507131516 -17 354 6.4 11.3 0.00 0.00 0.00 1021.9
20260507131013 -17 80 3.2 9.7 0.00 0.00 0.00 1021.7
20260507130510 -17 324 3.2 14.5 0.00 0.00 0.00 1021.8
20260507130009 -17 38 3.2 11.3 0.00 0.00 0.00 1021.5
20260507125507 -17 348 1.6 11.3 0.00 0.00 0.00 1021.6
20260507125004 -17 43 3.2 16.1 0.00 0.00 0.00 1021.7
20260507124500 -17 295 4.8 12.9 0.00 0.00 0.00 1021.7
20260507123958 -17 9 1.6 11.3 0.00 0.00 0.00 1021.9
20260507123455 -17 231 1.6 14.5 0.00 0.00 0.00 1021.8
20260507122951 -17 41 3.2 11.3 0.00 0.00 0.00 1021.6
20260507122447 -17 316 4.8 9.7 0.00 0.00 0.00 1021.4
20260507121943 -17 348 3.2 11.3 0.00 0.00 0.00 1021.3
20260507121438 -17 16 3.2 9.7 0.00 0.00 0.00 1021.1
20260507120935 -17 345 6.4 14.5 0.00 0.00 0.00 1021.0
20260507120224 -17 13 4.8 14.5 0.00 0.00 0.00 1020.6
20260507115720 -17 13 4.8 14.5 0.00 0.00 0.00 1020.6
20260507115216 -17 113 4.8 12.9 0.00 0.00 0.00 1020.6
20260507114712 -17 55 6.4 16.1 0.00 0.00 0.00 1020.7
20260507114210 -17 107 1.6 11.3 0.00 0.00 0.00 1020.8
20260507113707 -17 357 1.6 12.9 0.00 0.00 0.00 1021.0
20260507113203 -17 101 3.2 11.3 0.00 0.00 0.00 1020.9
20260507112701 -17 34 4.8 8.0 0.00 0.00 0.00 1020.9
20260507112158 -17 52 1.6 12.9 0.00 0.00 0.00 1020.7
20260507111655 -17 358 4.8 11.3 0.00 0.00 0.00 1020.6
20260507111152 -17 197 1.6 8.0 0.00 0.00 0.00 1020.7
20260507110648 -17 42 3.2 6.4 0.00 0.00 0.00 1020.7
20260507110145 -17 25 1.6 6.4 0.00 0.00 0.00 1020.6
20260507105642 -17 342 1.6 6.4 0.00 0.00 0.00 1020.6
20260507105137 -17 31 4.8 11.3 0.00 0.00 0.00 1020.7
20260507104635 -17 269 4.8 11.3 0.00 0.00 0.00 1020.8
20260507104131 -17 150 4.8 16.1 0.00 0.00 0.00 1020.7
20260507103627 -17 84 3.2 11.3 0.00 0.00 0.00 1020.2
20260507103124 -17 330 4.8 8.0 0.00 0.00 0.00 1020.1
20260507102621 -17 345 3.2 9.7 0.00 0.00 0.00 1020.3
20260507102117 -17 9 4.8 9.7 0.00 0.00 0.00 1020.8
20260507101613 -17 87 3.2 9.7 0.00 0.00 0.00 1020.7
20260507101109 -17 20 3.2 8.0 0.00 0.00 0.00 1020.5
20260507100606 -17 118 3.2 8.0 0.00 0.00 0.00 1020.3
20260507100105 -17 71 1.6 8.0 0.00 0.00 0.00 1020.4
20260507095602 -17 0 3.2 8.0 0.00 0.00 0.00 1020.4
20260507095058 -17 285 4.8 14.5 0.00 0.00 0.00 1020.5
20260507094555 -17 79 0.0 6.4 0.00 0.00 0.00 1020.5
20260507094052 -17 330 3.2 4.8 0.00 0.00 0.00 1020.4
20260507093549 -17 352 6.4 12.9 0.00 0.00 0.00 1020.0
20260507093048 -17 7 6.4 11.3 0.00 0.00 0.00 1020.0
20260507092544 -17 119 0.0 6.4 0.00 0.00 0.00 1020.0
20260507092041 -17 10 8.0 12.9 0.00 0.00 0.00 1020.2
20260507091538 -17 34 3.2 6.4 0.00 0.00 0.00 1020.2
20260507091034 -17 71 3.2 6.4 0.00 0.00 0.00 1019.7
20260507090529 -17 35 1.6 8.0 0.00 0.00 0.00 1019.9
20260507090026 -17 255 1.6 6.4 0.00 0.00 0.00 1019.4
20260507085524 -17 82 3.2 8.0 0.00 0.00 0.00 1019.6
20260507085020 -17 257 0.0 6.4 0.00 0.00 0.00 1019.3
20260507084517 -17 308 3.2 6.4 0.00 0.00 0.00 1019.3
20260507084014 -17 129 0.0 4.8 0.00 0.00 0.00 1019.6
20260507083510 -17 154 3.2 3.2 0.00 0.00 0.00 1019.1
20260507083007 -17 268 0.0 6.4 0.00 0.00 0.00 1019.4
20260507082503 -17 55 1.6 6.4 0.00 0.00 0.00 1019.2
20260507081959 -17 18 0.0 8.0 0.00 0.00 0.00 1019.0
20260507081455 -17 343 3.2 4.8 0.00 0.00 0.00 1019.2
20260507080953 -17 66 3.2 6.4 0.00 0.00 0.00 1019.3
20260507080448 -17 149 3.2 4.8 0.00 0.00 0.00 1018.9
20260507075944 -17 72 3.2 6.4 0.00 0.00 0.00 1018.6
20260507075441 -17 82 1.6 8.0 0.00 0.00 0.00 1018.7
20260507074937 -17 76 1.6 4.8 0.00 0.00 0.00 1019.2
20260507074434 -17 145 0.0 3.2 0.00 0.00 0.00 1019.0
20260507073932 -17 53 0.0 4.8 0.00 0.00 0.00 1018.4
20260507073428 -17 54 4.8 11.3 0.00 0.00 0.00 1018.7
20260507072925 -17 82 1.6 8.0 0.00 0.00 0.00 1018.5
20260507072423 -17 216 0.0 6.4 0.00 0.00 0.00 1018.6
20260507071920 -17 42 3.2 8.0 0.00 0.00 0.00 1018.7
20260507071417 -17 132 0.0 4.8 0.00 0.00 0.00 1019.0
20260507070913 -17 36 0.0 6.4 0.00 0.00 0.00 1018.9
20260507070411 -17 57 3.2 3.2 0.00 0.00 0.00 1018.7
20260507065907 -17 10 0.0 6.4 0.00 0.00 0.00 1018.7
20260507065404 -17 346 4.8 6.4 0.00 0.00 0.00 1018.5
20260507064901 -17 42 1.6 9.7 0.00 0.00 0.00 1018.4
20260507064359 -17 212 0.0 4.8 0.00 0.00 0.00 1018.3
20260507063857 -17 156 0.0 3.2 0.00 0.00 0.00 1018.5
20260507063354 -17 147 0.0 3.2 0.00 0.00 0.00 1018.6
20260507062851 -17 171 1.6 3.2 0.00 0.00 0.00 1018.6
20260507062347 -17 266 0.0 4.8 0.00 0.00 0.00 1018.7
20260507061845 -17 49 4.8 6.4 0.00 0.00 0.00 1018.7
20260507061343 -17 117 0.0 4.8 0.00 0.00 0.00 1018.9
20260507060841 -17 12 3.2 6.4 0.00 0.00 0.00 1019.0
20260507060338 -17 150 0.0 4.8 0.00 0.00 0.00 1019.0
20260507055835 -17 135 3.2 4.8 0.00 0.00 0.00 1018.6
20260507055330 -17 44 3.2 4.8 0.00 0.00 0.00 1018.6
20260507054827 -17 7 1.6 4.8 0.00 0.00 0.00 1018.9
20260507054323 -17 167 0.0 14.5 0.00 0.00 0.00 1018.5
20260507053820 -17 58 1.6 4.8 0.00 0.00 0.00 1018.5
20260507053318 -17 147 1.6 11.3 0.00 0.00 0.00 1018.4
20260507052817 -17 75 4.8 9.7 0.00 0.00 0.00 1018.5
20260507052313 -17 242 1.6 6.4 0.00 0.00 0.00 1018.7
20260507051811 -17 97 4.8 8.0 0.00 0.00 0.00 1018.7
20260507051308 -17 68 3.2 8.0 0.00 0.00 0.00 1018.4
20260507050804 -17 88 0.0 9.7 0.00 0.00 0.00 1018.5
20260507050301 -17 91 4.8 8.0 0.00 0.00 0.00 1018.7
20260507045758 -17 101 1.6 8.0 0.00 0.00 0.00 1018.8
20260507045254 -17 102 3.2 6.4 0.00 0.00 0.00 1018.7
20260507044751 -17 118 1.6 4.8 0.00 0.00 0.00 1018.7
20260507044248 -17 301 0.0 8.0 0.00 0.00 0.00 1018.5
20260507043744 -17 66 3.2 9.7 0.00 0.00 0.00 1018.7
20260507043241 -17 95 0.0 4.8 0.00 0.00 0.00 1018.8
20260507042737 -17 26 3.2 9.7 0.00 0.00 0.00 1018.8
20260507042232 -17 77 3.2 6.4 0.00 0.00 0.00 1018.8
20260507041730 -17 80 0.0 9.7 0.00 0.00 0.00 1018.6
20260507041226 -17 79 3.2 14.5 0.00 0.00 0.00 1018.9
20260507040724 -17 320 4.8 11.3 0.00 0.00 0.00 1019.0
20260507040220 -17 326 3.2 8.0 0.00 0.00 0.00 1018.9
20260507035716 -17 101 1.6 6.4 0.00 0.00 0.00 1018.8
20260507035211 -17 229 0.0 4.8 0.00 0.00 0.00 1018.8
20260507034709 -17 66 0.0 4.8 0.00 0.00 0.00 1018.5
20260507034206 -17 37 3.2 9.7 0.00 0.00 0.00 1018.3
20260507033704 -17 63 6.4 12.9 0.00 0.00 0.00 1018.4
20260507033201 -17 15 6.4 11.3 0.00 0.00 0.00 1018.7
20260507032659 -17 124 3.2 8.0 0.00 0.00 0.00 1018.7
20260507032154 -17 112 1.6 11.3 0.00 0.00 0.00 1018.3
20260507031651 -17 348 0.0 16.1 0.00 0.00 0.00 1017.9
20260507031148 -17 34 3.2 6.4 0.00 0.00 0.00 1017.9
20260507030645 -17 12 3.2 11.3 0.00 0.00 0.00 1017.8
20260507030143 -17 11 4.8 11.3 0.00 0.00 0.00 1018.4
20260507025639 -17 26 6.4 8.0 0.00 0.00 0.00 1018.5
20260507025136 -17 6 3.2 8.0 0.00 0.00 0.00 1018.3
20260507024634 -17 82 4.8 9.7 0.00 0.00 0.00 1018.2
20260507024131 -17 6 4.8 6.4 0.00 0.00 0.00 1018.1
20260507023627 -17 46 1.6 8.0 0.00 0.00 0.00 1017.9
20260507023124 -17 62 0.0 6.4 0.00 0.00 0.00 1017.9
20260507022621 -17 319 0.0 4.8 0.00 0.00 0.00 1017.4
20260507022116 -17 58 0.0 4.8 0.00 0.00 0.00 1017.8
20260507021613 -17 24 0.0 3.2 0.00 0.00 0.00 1017.8
20260507021109 -17 7 4.8 8.0 0.00 0.00 0.00 1017.6
20260507020608 -17 312 4.8 8.0 0.00 0.00 0.00 1016.8
20260507020103 -17 76 0.0 4.8 0.00 0.00 0.00 1016.8
20260507015602 -17 53 0.0 4.8 0.00 0.00 0.00 1016.8
20260507015059 -17 43 3.2 12.9 0.00 0.00 0.00 1016.8
20260507014555 -17 55 0.0 6.4 0.00 0.00 0.00 1016.8
20260507014051 -17 89 3.2 8.0 0.00 0.00 0.00 1016.8
20260507013548 -17 13 3.2 4.8 0.00 0.00 0.00 1016.8
20260507013045 -17 0 4.8 9.7 0.00 0.00 0.00 1016.1
20260507012543 -17 147 0.0 3.2 0.00 0.00 0.00 1016.1
20260507012038 -17 26 0.0 8.0 0.00 0.00 0.00 1016.1
20260507011536 -17 15 3.2 6.4 0.00 0.00 0.00 1016.1
20260507011032 -17 76 0.0 8.0 0.00 0.00 0.00 1016.1
20260507010526 -17 119 0.0 8.0 0.00 0.00 0.00 1016.1
20260507010023 -17 39 0.0 4.8 0.00 0.00 0.00 1016.1
20260507005521 -17 235 0.0 8.0 0.00 0.00 0.00 1016.1
20260507005017 -17 288 1.6 6.4 0.00 0.00 0.00 1016.0
20260507004514 -17 345 3.2 11.3 0.00 0.00 0.00 1016.1
20260507004012 -17 15 0.0 4.8 0.00 0.00 0.00 1016.1
20260507003507 -17 62 0.0 14.5 0.00 0.00 0.00 1016.1
20260507003002 -17 13 0.0 4.8 0.00 0.00 0.00 1016.1
20260507002459 -17 15 4.8 9.7 0.00 0.00 0.00 1016.0
20260507001955 -17 79 0.0 4.8 0.00 0.00 0.00 1016.0
20260507001452 -17 350 0.0 6.4 0.00 0.00 0.00 1016.0
20260507000949 -17 134 1.6 12.9 0.00 0.00 0.00 1016.0
20260507000445 -17 68 1.6 4.8 0.00 0.00 0.00 1015.9
20260506235941 -17 196 0.0 4.8 0.00 0.00 0.00 1015.9
20260506235438 -17 108 0.0 6.4 0.00 0.00 0.00 1015.9
20260506234933 -17 250 0.0 4.8 0.00 0.00 0.00 1015.9
20260506234432 -17 269 0.0 6.4 0.00 0.00 0.00 1015.9
20260506233929 -17 353 6.4 9.7 0.00 0.00 0.00 1015.5
20260506233425 -17 289 0.0 8.0 0.00 0.00 0.00 1015.8
20260506232922 -17 308 0.0 11.3 0.00 0.00 0.00 1015.7
20260506232418 -17 316 1.6 6.4 0.00 0.00 0.00 1015.8
20260506231914 -17 319 3.2 8.0 0.00 0.00 0.00 1016.1
20260506231412 -17 20 3.2 8.0 0.00 0.00 0.00 1016.1
20260506230909 -17 246 0.0 8.0 0.00 0.00 0.00 1015.7
20260506230405 -17 111 0.0 8.0 0.00 0.00 0.00 1015.7
20260506225902 -17 357 4.8 8.0 0.00 0.00 0.00 1015.7
20260506225359 -17 128 1.6 8.0 0.00 0.00 0.00 1015.9
20260506224856 -17 209 0.0 6.4 0.00 0.00 0.00 1015.9
20260506224354 -17 77 3.2 4.8 0.00 0.00 0.00 1015.6
20260506223850 -17 24 1.6 8.0 0.00 0.00 0.00 1015.8
20260506223345 -17 355 3.2 9.7 0.00 0.00 0.00 1015.5
20260506222842 -17 344 1.6 9.7 0.00 0.00 0.00 1015.3
20260506222338 -17 31 0.0 8.0 0.00 0.00 0.00 1015.6
20260506221836 -17 326 1.6 12.9 0.00 0.00 0.00 1015.5
20260506221333 -17 71 3.2 9.7 0.00 0.00 0.00 1015.4
20260506220831 -17 289 6.4 8.0 0.00 0.00 0.00 1015.8
20260506220326 -17 0 6.4 11.3 0.00 0.00 0.00 1015.8
20260506215823 -17 320 4.8 9.7 0.00 0.00 0.00 1015.5
20260506215319 -17 228 3.2 14.5 0.00 0.00 0.00 1015.6
20260506214815 -17 338 4.8 14.5 0.00 0.00 0.00 1015.6
20260506214312 -17 8 3.2 8.0 0.00 0.00 0.00 1015.6
20260506213810 -17 11 3.2 6.4 0.00 0.00 0.00 1015.5
20260506213306 -17 0 9.7 14.5 0.00 0.00 0.00 1015.6
20260506212804 -17 66 3.2 14.5 0.00 0.00 0.00 1015.7
20260506212259 -17 71 1.6 4.8 0.00 0.00 0.00 1015.8
20260506211754 -17 319 1.6 12.9 0.00 0.00 0.00 1015.8
20260506211251 -17 316 4.8 12.9 0.00 0.00 0.00 1015.7
20260506210748 -17 114 3.2 14.5 0.00 0.00 0.00 1015.8
20260506210245 -17 30 4.8 6.4 0.00 0.00 0.00 1015.8
20260506205742 -17 246 0.0 9.7 0.00 0.00 0.00 1015.8
20260506205238 -17 323 4.8 8.0 0.00 0.00 0.00 1015.8
20260506204735 -17 242 0.0 8.0 0.00 0.00 0.00 1015.7
20260506204233 -17 275 3.2 8.0 0.00 0.00 0.00 1016.0
20260506203731 -17 67 6.4 14.5 0.00 0.00 0.00 1016.0
20260506203227 -17 3 1.6 9.7 0.00 0.00 0.00 1015.9
20260506202725 -17 346 4.8 8.0 0.00 0.00 0.00 1015.9
20260506202221 -17 283 3.2 14.5 0.00 0.00 0.00 1015.7
20260506201718 -17 354 4.8 11.3 0.00 0.00 0.00 1015.8
20260506201215 -17 63 3.2 20.9 0.00 0.00 0.00 1015.7
20260506200712 -17 10 4.8 14.5 0.00 0.00 0.00 1015.8
20260506200209 -17 135 1.6 14.5 0.00 0.00 0.00 1015.7
20260506195705 -17 55 8.0 17.7 0.00 0.00 0.00 1015.5
20260506195201 -17 7 8.0 17.7 0.00 0.00 0.00 1015.5
20260506194659 -17 11 4.8 8.0 0.00 0.00 0.00 1015.5
20260506194155 -17 325 1.6 11.3 0.00 0.00 0.00 1015.5
20260506193653 -17 117 3.2 11.3 0.00 0.00 0.00 1015.5
20260506193149 -17 8 4.8 16.1 0.00 0.00 0.00 1015.5
20260506192646 -17 44 3.2 9.7 0.00 0.00 0.00 1015.8
20260506192142 -17 239 6.4 9.7 0.00 0.00 0.00 1015.9
20260506191640 -17 3 0.0 6.4 0.00 0.00 0.00 1015.9
20260506191135 -17 312 0.0 9.7 0.00 0.00 0.00 1015.9
20260506190633 -17 89 0.0 11.3 0.00 0.00 0.00 1015.9
20260506190130 -17 13 4.8 8.0 0.00 0.00 0.00 1015.9
20260506185627 -17 300 3.2 11.3 0.00 0.00 0.00 1015.5
20260506185123 -17 6 1.6 6.4 0.00 0.00 0.00 1015.5
20260506184620 -17 338 0.0 6.4 0.00 0.00 0.00 1015.5
20260506184118 -17 341 3.2 17.7 0.00 0.00 0.00 1015.6
20260506183614 -17 318 3.2 16.1 0.00 0.00 0.00 1015.5
20260506183110 -17 272 1.6 6.4 0.00 0.00 0.00 1015.4